Regional Weather Roundup
Issued by NWS Grand Forks, ND

Home | Current Version | Previous Version | Graphics & Text | Print | Product List | Glossary On
Versions: 1 2 3 4 5 6 7 8 9 10 11 12 13 14 15 16 17 18 19 20 21 22 23 24 25 26 27 28 29 30 31 32 33 34 35 36 37 38 39 40 41 42 43 44 45 46 47 48 49 50
432
ASUS43 KFGF 021710
RWRFGF
PRAIRIE TO PINES  WEATHER ROUNDUP
NATIONAL WEATHER SERVICE EASTERN NORTH DAKOTA/GRAND FORKS ND
1200 PM CDT MON MAY 02 2016

 **SATELLITE DATA USED TO AUGMENT SKY COVER AT AUTOMATED STATIONS**
 *****  WEATHER ACROSS EASTERN NORTH DAKOTA  *****

CITY           SKY/WX    TMP DP  RH WIND       PRES   REMARKS
GRAND FORKS    MOSUNNY   66  30  26 SE7       30.01S
GRAND FRKS AFB SUNNY     66  30  26 E9        30.01F
DEVILS LAKE    MOSUNNY   61  37  41 S9        30.02S
FARGO          SUNNY     66  29  24 VRB3      30.02S
WAHPETON ARPT  SUNNY     63  28  27 W5        30.04S
$$

 ***** WEATHER ACROSS CENTRAL AND WESTERN NORTH DAKOTA  *****

CITY           SKY/WX    TMP DP  RH WIND       PRES   REMARKS
BISMARCK       PTSUNNY   56  45  66 SE13      30.01F
MINOT          SUNNY     68  38  33 NE12      29.99R
JAMESTOWN      CLOUDY    55  44  66 S13       30.02S
MINOT AFB      SUNNY     64  40  41 NE13      29.98R
GARRISON         N/A     63  40  42 NE9G17    29.97R
WILLISTON      SUNNY     68  36  30 N14       30.02F
DICKINSON      PTSUNNY   63  35  35 NW22G30   29.99F
HETTINGER      LGT RAIN  62  34  35 NW23G32   30.03F
$$

 *****  OTHER AIRPORT OBSERVATIONS IN OUR AREA  *****

CITY           SKY/WX    TMP DP  RH WIND       PRES   REMARKS
WALHALLA       FAIR      64  37  36 E8        30.03S
GRAFTON AIRPOR FAIR      66  34  30 E9        30.03S
VALLEY CITY AR PTSUNNY   59  37  44 W10       30.05R
CANDO          FAIR      63  36  36 SE13G24   30.04S
CAVALIER APRT  FAIR      64  36  34 N6        30.02S
GWINNER        FAIR      64  32  29 SW6       30.03S
SHEYENNE NWR     N/A     69  33  26 S3        29.95S
ROLLA          FAIR      61  36  39 SE14      30.03S
 ***** THE ABOVE OBSERVATIONS ARE NON NWS ARE NOT QUALITY
       CONTROLLED AND MAY MIS-REPORT RAIN FOR SNOW...
$$

  *****  WEATHER ACROSS NORTHERN MINNESOTA  *****

CITY           SKY/WX    TMP DP  RH WIND       PRES   REMARKS
FLAG ISLAND    SUNNY     52  34  50 S5        30.06S
WARROAD        SUNNY     57  37  47 NE8       30.06S
ROSEAU         SUNNY     63  25  23 SE6       30.04F
HALLOCK        SUNNY     66  25  20 SE9       30.01F
THF RVR FALLS  SUNNY     64  27  24 CALM      30.04F
BAUDETTE       SUNNY     63  26  24 VRB3      30.06S
WASKISH        SUNNY     61  32  33 W6        30.06S
CROOKSTON      SUNNY     66  28  24 S8        30.03S
STEPHEN NDAWN    N/A     66  28  24 SE6         N/A
GREENBUSH NDAW   N/A     64  28  25 E3          N/A
$$
  *****  WEATHER ACROSS CENTRAL AND WEST MINNESOTA  *****

CITY           SKY/WX    TMP DP  RH WIND       PRES   REMARKS
FOSSTON        SUNNY     64  25  22 N3        30.04S
BEMIDJI        SUNNY     62  28  27 E9        30.05S
PARK RAPIDS    SUNNY     64  25  22 CALM      30.04F
ELBOW LAKE     FAIR      62  32  32 SW8       30.05F
WADENA         MOSUNNY   63  34  34 NW3       30.05S
DETROIT LAKES  MOSUNNY   61  28  29 CALM      30.05S
MOORHEAD       SUNNY     64  28  25 CALM      30.03S
FERGUS FALLS   SUNNY     64  34  32 SW5       30.02F
MORRIS MN      SUNNY     64  34  32 W3        30.05F
STAPLES        SUNNY     63  27  25 W9        30.05F
$$
  *****  WEATHER ELSEWHERE ACROSS MINNESOTA  *****

CITY           SKY/WX    TMP DP  RH WIND       PRES   REMARKS
DULUTH         MOSUNNY   59  33  37 S8        30.08F
INTRNTL FALLS  SUNNY     61  31  32 E8        30.06F
ELY            MOSUNNY   57  27  30 W6        30.07F
CLOQUET        MOSUNNY   61  30  31 E6        30.08F
WHEATON        SUNNY     66  34  30 S5        30.06F
BRAINERD       PTSUNNY   59  29  31 W6        30.07F
HIBBING        SUNNY     59  31  34 W6        30.07F
ALEXANDRIA     MOSUNNY   60  28  29 W6        30.07S
SAINT CLOUD    SUNNY     61  31  32 CALM      30.08F
MINNEAPOLIS    SUNNY     62  30  29 CALM      30.09F
$$

  *****  WEATHER ACROSS SOUTH DAKOTA  *****

CITY           SKY/WX    TMP DP  RH WIND       PRES   REMARKS
SIOUX FALLS    PTSUNNY   59  38  45 NW10      30.10F
BROOKINGS      NOT AVBL
WATERTOWN      MOSUNNY   61  31  32 VRB7      30.06F
HURON          MOSUNNY   61  39  44 MISG      30.07F
SISSETON         N/A     64  29  26 VRB3      30.03F
ABERDEEN       CLOUDY    63  38  39 S10       30.04F
MITCHELL       PTSUNNY   61  42  49 CALM      30.10F
PIERRE         MOSUNNY   60  43  53 W7        30.04F
MOBRIDGE       RAIN      48  43  82 NW7       30.05R
RAPID CITY     MOSUNNY   60  33  36 NW10G21   30.10F
$$

  *****  SOME WEATHER IN NEARBY STATES *****

CITY           SKY/WX    TMP DP  RH WIND       PRES   REMARKS
GLASGOW MT     SUNNY     65  40  39 NW14      30.10F
GREAT FALLS MT NOT AVBL
CHEYENNE WY    SUNNY     48  18  30 VRB5      30.21F
SCOTTSBLUFF NE SUNNY     55  35  47 W12       30.19F
OMAHA NE       MOSUNNY   60  43  53 VRB3      30.13S
DES MOINES IA  PTSUNNY   61  42  49 VRB3      30.11S
DAVENPORT IA   CLOUDY    56  41  57 NE13      30.09S
CHICAGO IL     PTSUNNY   55  36  48 NE17      30.05S
EAU CLAIRE WI  SUNNY     61  33  35 S6        30.09F
LA CROSSE WI   SUNNY     61  35  37 S7        30.10F
$$

  *****  SOME NATIONAL WEATHER *****

CITY           SKY/WX    TMP DP  RH WIND       PRES   REMARKS
LA GUARDIA NY  CLOUDY    54  47  77 S6        29.94F
RALEIGH NC     PTSUNNY   81  69  67 SW8       29.99F
ATLANTA GA     MOSUNNY   81  63  54 SW9G21    30.02S
NEW ORLEANS LA CLOUDY    78  72  81 W6        30.01S
OKLAHOMA CITY  CLOUDY    55  43  63 N16G23    30.19S
ALBUQUERQUE NM PTSUNNY   48  31  51 NE6       30.30F
SALT LAKE CITY MOSUNNY   60  28  29 CALM      30.19F
LOS ANGELES CA PTSUNNY   62  53  72 W8        30.05S
BOISE ID       SUNNY     65  32  29 SE14G20   30.18S
SEATTLE WA     MOSUNNY   70  51  51 W6        29.98S
$$

*** WEATHER ACROSS MANITOBA...SASKATCHEWAN AND ONTARIO ***
                ***ONTARIO***

CITY           SKY/WX    TMP DP  RH WIND       PRES   REMARKS
GERALDTON      MOSUNNY   57  32  38 NW8       30.04F
THUNDER BAY    MOSUNNY   59  32  36 E8        30.07F
SIOUX LOOKOUT  MOSUNNY   63  32  31 W7        30.04F
TORONTO        PTSUNNY   48  39  71 N8        30.00S
BIG TROUT LK   MOSUNNY   64  32  29 W13       29.88F
PICKLE LAKE    PTSUNNY   63  30  29 W6        29.98F
DRYDEN         SUNNY     63  28  27 SW12      30.04F
KENORA         NOT AVBL
$$
                *** MANITOBA***

CITY           SKY/WX    TMP DP  RH WIND       PRES   REMARKS
BRANDON        MOSUNNY   61  41  48 NE3       30.03S
DAUPHIN        SUNNY     61  46  59 VRB3      30.03F
ISLAND LAKE    CLOUDY    59  36  41 W9        29.92F
PILOT MOUND      N/A     59  34  38 SE8         N/A
THE PAS        PTSUNNY   63  39  42 W10       29.99F
THOMPSON       PTSUNNY   68  36  30 W16G24    29.80F
WINNIPEG       SUNNY     64  32  29 VRB3      30.03S
LYNN LAKE      SUNNY     59  27  29 N17G23    29.90S
CHURCHILL      PTSUNNY   50  37  62 S9        29.65F
GILLAM         PTSUNNY   59  41  51 W12       29.73F
$$
                ***SASKATCHEWAN***

CITY           SKY/WX    TMP DP  RH WIND       PRES   REMARKS
ESTEVAN        PTSUNNY   68  32  26 NE14      30.02R
KINDERSLEY     MOSUNNY   72  36  26 NW6       30.07F
LLOYDMINSTER   MOSUNNY   75  37  25 CALM      30.06S
PRINCE ALBERT  CLOUDY    68  34  28 SW5       30.03F
REGINA         MOSUNNY   68  30  24 E3        30.04F
YORKTON        SUNNY     63  34  34 VRB6      30.03F
N. BATTLEFORD  SUNNY     72  39  30 NW3       30.07S
LA RONGE       MOSUNNY   70  32  24 NW7       29.99F
SASKATOON      PTSUNNY   68  34  28 SE2       30.06F
SWIFT CURRENT  SUNNY     68  36  30 NW9G21    30.08F
$$
NOTE: THESE ARE AUTOMATED STATIONS WITH LIMITED QUALITY CONTROL
      "FAIR" INDICATES FEW OR NO CLOUDS BELOW 12,000 FEET WITH NO
      SIGNIFICANT WEATHER AND/OR OBSTRUCTIONS TO VISIBILITY.
      SKY/WX - SKY CONDITION AND SIGNIFICANT WEATHER.
      TMP - AIR TEMPERATURE.    DP   - DEWPOINT TEMPERATURE.
      RH  - RELATIVE HUMIDITY.  PRES - PRESSURE.
      HX  - HEAT INDEX.         WCI  - WIND CHILL INDEX.
$




USA.gov is the U.S. government's official web portal to all federal, state and local government web resources and services.